Time,TemperatureF,DewpointF,PressureIn,WindDirection,WindDirectionDegrees,WindSpeedMPH,WindSpeedGustMPH,Humidity,HourlyPrecipIn,Conditions,Clouds,dailyrainin,SolarRadiationWatts/m^2,SoftwareType,DateUTC
2013-01-13 00:15:00,72.5,66.0,30.09,East,84,5.0,6.0,81,0.00,,,0.00,0,weatherlink.com 1.10,2013-01-13 05:15:00,
2013-01-13 00:30:00,72.8,66.0,30.09,ESE,111,2.0,5.0,80,0.00,,,0.00,0,weatherlink.com 1.10,2013-01-13 05:30:00,
2013-01-13 00:45:00,73.0,67.0,30.09,East,93,5.0,7.0,80,0.00,,,0.00,0,weatherlink.com 1.10,2013-01-13 05:45:00,
2013-01-13 01:00:00,73.3,67.0,30.09,ESE,111,3.0,8.0,80,0.00,,,0.00,0,weatherlink.com 1.10,2013-01-13 06:00:00,
2013-01-13 01:15:00,73.3,67.0,30.09,ESE,111,3.0,9.0,81,0.00,,,0.00,0,weatherlink.com 1.10,2013-01-13 06:15:00,
2013-01-13 01:30:00,73.4,67.0,30.09,East,90,5.0,7.0,81,0.00,,,0.00,0,weatherlink.com 1.10,2013-01-13 06:30:00,
2013-01-13 01:45:00,73.6,67.0,30.08,ENE,71,2.0,7.0,81,0.00,,,0.00,0,weatherlink.com 1.10,2013-01-13 06:45:00,
2013-01-13 02:00:00,73.6,67.0,30.08,East,96,2.0,8.0,81,0.00,,,0.00,0,weatherlink.com 1.10,2013-01-13 07:00:00,
2013-01-13 02:15:00,73.6,67.0,30.08,ESE,110,3.0,8.0,81,0.00,,,0.00,0,weatherlink.com 1.10,2013-01-13 07:15:00,
2013-01-13 02:30:00,73.9,67.0,30.08,East,90,2.0,9.0,80,0.00,,,0.00,0,weatherlink.com 1.10,2013-01-13 07:30:00,
2013-01-13 02:45:00,74.0,67.0,30.08,East,89,3.0,7.0,79,0.00,,,0.00,0,weatherlink.com 1.10,2013-01-13 07:45:00,
2013-01-13 03:00:00,73.8,66.0,30.07,East,89,6.0,10.0,77,0.00,,,0.00,0,weatherlink.com 1.10,2013-01-13 08:00:00,
2013-01-13 03:15:00,73.7,66.0,30.07,East,85,3.0,8.0,77,0.00,,,0.00,0,weatherlink.com 1.10,2013-01-13 08:15:00,
2013-01-13 03:30:00,73.8,66.0,30.07,ESE,103,3.0,9.0,77,0.00,,,0.00,0,weatherlink.com 1.10,2013-01-13 08:30:00,
2013-01-13 03:45:00,73.4,65.0,30.07,ESE,121,4.0,10.0,76,0.00,,,0.00,0,weatherlink.com 1.10,2013-01-13 08:45:00,
2013-01-13 04:00:00,73.2,65.0,30.07,SE,124,3.0,10.0,76,0.00,,,0.00,0,weatherlink.com 1.10,2013-01-13 09:00:00,
2013-01-13 04:15:00,73.1,65.0,30.07,SE,132,6.0,9.0,75,0.00,,,0.00,0,weatherlink.com 1.10,2013-01-13 09:15:00,
2013-01-13 04:30:00,73.2,65.0,30.07,ESE,117,7.0,9.0,75,0.00,,,0.00,0,weatherlink.com 1.10,2013-01-13 09:30:00,
2013-01-13 04:45:00,73.2,65.0,30.07,ESE,116,3.0,8.0,75,0.00,,,0.00,0,weatherlink.com 1.10,2013-01-13 09:45:00,
2013-01-13 05:01:00,72.9,65.0,30.08,ESE,110,2.0,8.0,76,0.00,,,0.00,0,weatherlink.com 1.10,2013-01-13 10:01:00,
2013-01-13 05:16:00,72.7,64.0,30.08,East,86,5.0,6.0,75,0.00,,,0.00,0,weatherlink.com 1.10,2013-01-13 10:16:00,
2013-01-13 05:31:00,72.8,64.0,30.08,ESE,110,4.0,10.0,75,0.00,,,0.00,0,weatherlink.com 1.10,2013-01-13 10:31:00,
2013-01-13 05:46:00,72.9,64.0,30.08,South,172,2.0,7.0,74,0.00,,,0.00,0,weatherlink.com 1.10,2013-01-13 10:46:00,
2013-01-13 06:01:00,72.8,64.0,30.08,East,92,3.0,9.0,74,0.00,,,0.00,0,weatherlink.com 1.10,2013-01-13 11:01:00,
2013-01-13 06:16:00,72.7,64.0,30.08,East,90,2.0,8.0,74,0.00,,,0.00,0,weatherlink.com 1.10,2013-01-13 11:16:00,
2013-01-13 06:31:00,72.4,64.0,30.07,East,87,3.0,7.0,76,0.00,,,0.00,0,weatherlink.com 1.10,2013-01-13 11:31:00,
2013-01-13 06:46:00,72.6,65.0,30.07,East,94,3.0,7.0,76,0.00,,,0.00,0,weatherlink.com 1.10,2013-01-13 11:46:00,
2013-01-13 07:01:00,72.4,65.0,30.07,ESE,120,4.0,7.0,77,0.00,,,0.00,0,weatherlink.com 1.10,2013-01-13 12:01:00,
2013-01-13 07:16:00,72.3,65.0,30.08,ESE,115,2.0,5.0,78,0.00,,,0.00,9,weatherlink.com 1.10,2013-01-13 12:16:00,
2013-01-13 07:31:00,72.6,65.0,30.08,East,90,2.0,11.0,78,0.00,,,0.00,26,weatherlink.com 1.10,2013-01-13 12:31:00,
2013-01-13 07:46:00,73.2,66.0,30.08,ESE,118,3.0,8.0,77,0.00,,,0.00,58,weatherlink.com 1.10,2013-01-13 12:46:00,
2013-01-13 08:01:00,73.5,66.0,30.08,ESE,117,4.0,7.0,77,0.00,,,0.00,102,weatherlink.com 1.10,2013-01-13 13:01:00,
2013-01-13 08:16:00,74.1,66.0,30.09,ESE,119,2.0,8.0,77,0.00,,,0.00,111,weatherlink.com 1.10,2013-01-13 13:16:00,
2013-01-13 08:31:00,74.6,67.0,30.08,East,88,6.0,10.0,77,0.00,,,0.00,88,weatherlink.com 1.10,2013-01-13 13:31:00,
2013-01-13 08:46:00,74.3,67.0,30.08,East,88,3.0,11.0,78,0.00,,,0.00,114,weatherlink.com 1.10,2013-01-13 13:46:00,
2013-01-13 09:01:00,75.1,67.0,30.09,East,83,7.0,11.0,76,0.00,,,0.00,151,weatherlink.com 1.10,2013-01-13 14:01:00,
2013-01-13 09:16:00,75.4,67.0,30.09,East,86,5.0,9.0,76,0.00,,,0.00,114,weatherlink.com 1.10,2013-01-13 14:16:00,
2013-01-13 09:31:00,75.8,68.0,30.10,ESE,110,4.0,15.0,76,0.00,,,0.00,151,weatherlink.com 1.10,2013-01-13 14:31:00,
2013-01-13 09:46:00,76.4,68.0,30.10,East,98,5.0,10.0,75,0.00,,,0.00,401,weatherlink.com 1.10,2013-01-13 14:46:00,
2013-01-13 10:01:00,75.8,68.0,30.10,SE,125,4.0,11.0,77,0.00,,,0.00,190,weatherlink.com 1.10,2013-01-13 15:01:00,
2013-01-13 10:16:00,77.2,69.0,30.10,East,101,6.0,11.0,75,0.00,,,0.00,577,weatherlink.com 1.10,2013-01-13 15:16:00,
2013-01-13 10:31:00,77.0,69.0,30.09,East,95,6.0,14.0,75,0.00,,,0.00,236,weatherlink.com 1.10,2013-01-13 15:31:00,
2013-01-13 10:46:00,78.1,68.0,30.09,SSE,157,5.0,11.0,72,0.00,,,0.00,633,weatherlink.com 1.10,2013-01-13 15:46:00,
2013-01-13 11:01:00,78.0,68.0,30.10,SSW,197,1.0,10.0,72,0.00,,,0.00,649,weatherlink.com 1.10,2013-01-13 16:01:00,
2013-01-13 11:16:00,77.1,67.0,30.10,SE,130,5.0,14.0,72,0.00,,,0.00,408,weatherlink.com 1.10,2013-01-13 16:16:00,
2013-01-13 11:31:00,77.1,67.0,30.10,ESE,122,4.0,13.0,71,0.00,,,0.00,490,weatherlink.com 1.10,2013-01-13 16:31:00,
2013-01-13 11:46:00,77.7,68.0,30.11,SE,130,2.0,15.0,71,0.00,,,0.00,654,weatherlink.com 1.10,2013-01-13 16:46:00,
2013-01-13 12:01:00,79.1,67.0,30.11,SSE,155,2.0,10.0,67,0.00,,,0.00,758,weatherlink.com 1.10,2013-01-13 17:01:00,
2013-01-13 12:16:00,78.8,68.0,30.11,SE,130,3.0,8.0,69,0.00,,,0.00,278,weatherlink.com 1.10,2013-01-13 17:16:00,
2013-01-13 12:31:00,78.5,68.0,30.10,SSE,167,1.0,11.0,70,0.00,,,0.00,796,weatherlink.com 1.10,2013-01-13 17:31:00,
2013-01-13 12:47:00,79.6,68.0,30.10,East,82,8.0,8.0,68,0.00,,,0.00,346,weatherlink.com 1.10,2013-01-13 17:47:00,
2013-01-13 13:02:00,79.6,68.0,30.10,SE,133,1.0,7.0,68,0.00,,,0.00,759,weatherlink.com 1.10,2013-01-13 18:02:00,
2013-01-13 13:17:00,78.5,67.0,30.10,ESE,107,2.0,9.0,67,0.00,,,0.00,779,weatherlink.com 1.10,2013-01-13 18:17:00,
2013-01-13 13:32:00,78.6,66.0,30.09,SE,128,3.0,8.0,66,0.00,,,0.00,213,weatherlink.com 1.10,2013-01-13 18:32:00,
2013-01-13 13:47:00,79.3,67.0,30.09,SE,142,4.0,7.0,66,0.00,,,0.00,722,weatherlink.com 1.10,2013-01-13 18:47:00,
2013-01-13 14:02:00,79.0,66.0,30.09,South,170,1.0,5.0,65,0.00,,,0.00,153,weatherlink.com 1.10,2013-01-13 19:02:00,
2013-01-13 14:17:00,78.2,66.0,30.09,ENE,76,9.0,9.0,66,0.00,,,0.00,596,weatherlink.com 1.10,2013-01-13 19:17:00,
2013-01-13 14:32:00,78.0,67.0,30.09,NNE,32,4.0,7.0,68,0.00,,,0.00,594,weatherlink.com 1.10,2013-01-13 19:32:00,
2013-01-13 14:47:00,78.5,66.0,30.08,SE,132,6.0,10.0,66,0.00,,,0.00,536,weatherlink.com 1.10,2013-01-13 19:47:00,
2013-01-13 15:02:00,77.3,65.0,30.09,East,97,2.0,8.0,67,0.00,,,0.00,527,weatherlink.com 1.10,2013-01-13 20:02:00,
2013-01-13 15:17:00,78.2,66.0,30.09,ESE,123,5.0,7.0,67,0.00,,,0.00,497,weatherlink.com 1.10,2013-01-13 20:17:00,
2013-01-13 15:32:00,76.9,66.0,30.09,ESE,109,5.0,8.0,69,0.00,,,0.00,102,weatherlink.com 1.10,2013-01-13 20:32:00,
2013-01-13 15:47:00,77.1,66.0,30.10,SE,124,2.0,9.0,68,0.00,,,0.00,418,weatherlink.com 1.10,2013-01-13 20:47:00,
2013-01-13 16:02:00,76.9,66.0,30.10,East,80,5.0,7.0,69,0.00,,,0.00,357,weatherlink.com 1.10,2013-01-13 21:02:00,
2013-01-13 16:17:00,76.5,66.0,30.10,East,101,5.0,7.0,70,0.00,,,0.00,121,weatherlink.com 1.10,2013-01-13 21:17:00,
2013-01-13 16:32:00,75.9,66.0,30.11,ESE,120,7.0,10.0,72,0.00,,,0.00,53,weatherlink.com 1.10,2013-01-13 21:32:00,
2013-01-13 16:47:00,75.7,66.0,30.11,East,85,5.0,9.0,71,0.00,,,0.00,46,weatherlink.com 1.10,2013-01-13 21:47:00,
2013-01-13 17:02:00,75.5,66.0,30.11,East,98,5.0,8.0,72,0.00,,,0.00,32,weatherlink.com 1.10,2013-01-13 22:02:00,
2013-01-13 17:17:00,75.1,66.0,30.11,ESE,118,4.0,8.0,72,0.00,,,0.00,21,weatherlink.com 1.10,2013-01-13 22:17:00,
2013-01-13 17:32:00,74.9,65.0,30.11,East,99,3.0,6.0,71,0.00,,,0.00,14,weatherlink.com 1.10,2013-01-13 22:32:00,
2013-01-13 17:47:00,74.7,65.0,30.11,East,101,3.0,7.0,72,0.00,,,0.00,0,weatherlink.com 1.10,2013-01-13 22:47:00,
2013-01-13 18:03:00,74.4,65.0,30.12,ESE,109,2.0,6.0,73,0.00,,,0.00,0,weatherlink.com 1.10,2013-01-13 23:03:00,
2013-01-13 18:17:00,74.4,65.0,30.12,East,88,3.0,6.0,72,0.00,,,0.00,0,weatherlink.com 1.10,2013-01-13 23:17:00,
2013-01-13 18:32:00,74.0,65.0,30.12,ESE,111,2.0,5.0,73,0.00,,,0.00,0,weatherlink.com 1.10,2013-01-13 23:32:00,
2013-01-13 18:47:00,74.0,65.0,30.12,East,87,2.0,4.0,73,0.00,,,0.00,0,weatherlink.com 1.10,2013-01-13 23:47:00,
2013-01-13 19:02:00,74.1,65.0,30.11,ESE,111,3.0,4.0,74,0.00,,,0.00,0,weatherlink.com 1.10,2013-01-14 00:02:00,
2013-01-13 19:17:00,74.7,66.0,30.11,ESE,123,3.0,8.0,73,0.00,,,0.00,0,weatherlink.com 1.10,2013-01-14 00:17:00,
2013-01-13 19:32:00,75.1,66.0,30.12,ESE,107,4.0,9.0,72,0.00,,,0.00,0,weatherlink.com 1.10,2013-01-14 00:32:00,
2013-01-13 19:47:00,74.9,65.0,30.12,SSE,155,2.0,13.0,71,0.00,,,0.00,0,weatherlink.com 1.10,2013-01-14 00:47:00,
2013-01-13 20:02:00,74.5,64.0,30.11,ESE,112,2.0,7.0,70,0.00,,,0.00,0,weatherlink.com 1.10,2013-01-14 01:02:00,
2013-01-13 20:17:00,74.4,64.0,30.11,SE,130,5.0,8.0,71,0.00,,,0.00,0,weatherlink.com 1.10,2013-01-14 01:17:00,
2013-01-13 20:32:00,74.4,65.0,30.11,ESE,118,3.0,10.0,72,0.00,,,0.00,0,weatherlink.com 1.10,2013-01-14 01:32:00,
2013-01-13 20:47:00,74.2,65.0,30.10,SE,143,4.0,8.0,72,0.00,,,0.00,0,weatherlink.com 1.10,2013-01-14 01:47:00,
2013-01-13 21:02:00,73.9,64.0,30.10,SE,137,4.0,8.0,71,0.00,,,0.00,0,weatherlink.com 1.10,2013-01-14 02:02:00,
2013-01-13 21:17:00,74.2,64.0,30.09,ENE,73,4.0,9.0,71,0.00,,,0.00,0,weatherlink.com 1.10,2013-01-14 02:17:00,
2013-01-13 21:32:00,74.5,63.0,30.09,East,99,7.0,11.0,67,0.00,,,0.00,0,weatherlink.com 1.10,2013-01-14 02:32:00,
2013-01-13 21:47:00,74.4,64.0,30.09,ESE,121,3.0,8.0,70,0.00,,,0.00,0,weatherlink.com 1.10,2013-01-14 02:47:00,
2013-01-13 22:02:00,74.4,64.0,30.09,ESE,115,5.0,9.0,70,0.00,,,0.00,0,weatherlink.com 1.10,2013-01-14 03:02:00,
2013-01-13 22:17:00,74.2,64.0,30.10,ENE,71,5.0,9.0,71,0.00,,,0.00,0,weatherlink.com 1.10,2013-01-14 03:17:00,
2013-01-13 22:32:00,74.3,64.0,30.11,East,80,7.0,10.0,70,0.00,,,0.00,0,weatherlink.com 1.10,2013-01-14 03:32:00,
2013-01-13 22:47:00,74.0,64.0,30.11,SE,136,3.0,11.0,71,0.00,,,0.00,0,weatherlink.com 1.10,2013-01-14 03:47:00,
2013-01-13 23:02:00,73.6,64.0,30.11,East,84,3.0,7.0,71,0.00,,,0.00,0,weatherlink.com 1.10,2013-01-14 04:02:00,
2013-01-13 23:17:00,73.5,64.0,30.10,East,90,5.0,9.0,71,0.00,,,0.00,0,weatherlink.com 1.10,2013-01-14 04:17:00,
2013-01-13 23:32:00,73.6,64.0,30.10,ESE,121,7.0,8.0,72,0.00,,,0.00,0,weatherlink.com 1.10,2013-01-14 04:32:00,
2013-01-13 23:47:00,73.7,65.0,30.11,East,95,3.0,7.0,73,0.00,,,0.00,0,weatherlink.com 1.10,2013-01-14 04:47:00,